Time,TemperatureF,DewpointF,PressureIn,WindDirection,WindDirectionDegrees,WindSpeedMPH,WindSpeedGustMPH,Humidity,HourlyPrecipIn,Conditions,Clouds,dailyrainin,SoftwareType,DateUTC
2013-05-09 00:03:00,57.0,57.0,-100.00,North,353,0.0,3.0,99,0.00,,,0.16,,2013-05-09 04:03:00,
2013-05-09 00:13:00,57.0,57.0,-100.00,North,353,0.0,3.0,99,0.00,,,0.16,,2013-05-09 04:13:00,
2013-05-09 00:33:00,55.0,55.0,-100.00,North,359,0.0,3.0,99,0.00,,,0.16,,2013-05-09 04:33:00,
2013-05-09 00:43:00,55.0,55.0,-100.00,North,359,0.0,3.0,99,0.00,,,0.16,,2013-05-09 04:43:00,
2013-05-09 00:53:00,55.0,55.0,-100.00,North,359,0.0,3.0,99,0.00,,,0.16,,2013-05-09 04:53:00,
2013-05-09 01:02:00,55.0,55.0,-100.00,North,359,0.0,3.0,99,0.00,,,0.16,,2013-05-09 05:02:00,
2013-05-09 01:12:00,55.0,55.0,-100.00,North,359,0.0,3.0,99,0.00,,,0.16,,2013-05-09 05:12:00,
2013-05-09 01:32:00,54.0,54.0,-100.00,ENE,70,0.0,0.0,99,0.00,,,0.16,,2013-05-09 05:32:00,
2013-05-09 01:43:00,54.0,54.0,-100.00,ENE,70,0.0,0.0,99,0.00,,,0.16,,2013-05-09 05:43:00,
2013-05-09 01:52:00,54.0,54.0,-100.00,ENE,70,0.0,0.0,99,0.00,,,0.16,,2013-05-09 05:52:00,
2013-05-09 02:02:00,54.0,54.0,-100.00,ENE,70,0.0,0.0,99,0.00,,,0.16,,2013-05-09 06:02:00,
2013-05-09 02:12:00,54.0,54.0,-100.00,ENE,70,0.0,0.0,99,0.00,,,0.16,,2013-05-09 06:12:00,
2013-05-09 02:42:00,53.0,53.0,-100.00,WNW,284,1.0,3.0,99,0.00,,,0.16,,2013-05-09 06:42:00,
2013-05-09 02:52:00,53.0,53.0,-100.00,WNW,284,1.0,3.0,99,0.00,,,0.16,,2013-05-09 06:52:00,
2013-05-09 03:01:00,53.0,53.0,-100.00,WNW,284,1.0,3.0,99,0.00,,,0.16,,2013-05-09 07:01:00,
2013-05-09 03:12:00,53.0,53.0,-100.00,WNW,284,1.0,3.0,99,0.00,,,0.16,,2013-05-09 07:12:00,
2013-05-09 03:43:00,51.0,51.0,-100.00,SSW,208,0.0,3.0,99,0.01,,,0.17,,2013-05-09 07:43:00,
2013-05-09 03:52:00,51.0,51.0,-100.00,SSW,208,0.0,3.0,99,0.01,,,0.17,,2013-05-09 07:52:00,
2013-05-09 04:02:00,51.0,51.0,-100.00,SSW,208,0.0,3.0,99,0.01,,,0.17,,2013-05-09 08:02:00,
2013-05-09 04:11:00,51.0,51.0,-100.00,SSW,208,0.0,3.0,99,0.01,,,0.17,,2013-05-09 08:11:00,
2013-05-09 04:42:00,50.0,50.0,-100.00,WNW,290,0.0,0.0,99,0.00,,,0.17,,2013-05-09 08:42:00,
2013-05-09 04:52:00,50.0,50.0,-100.00,WNW,290,0.0,0.0,99,0.00,,,0.17,,2013-05-09 08:52:00,
2013-05-09 05:02:00,50.0,50.0,-100.00,WNW,290,0.0,0.0,99,0.00,,,0.17,,2013-05-09 09:02:00,
2013-05-09 05:11:00,50.0,50.0,-100.00,WNW,290,0.0,0.0,99,0.00,,,0.17,,2013-05-09 09:11:00,
2013-05-09 05:43:00,49.0,49.0,-100.00,NNE,24,0.0,2.0,99,0.00,,,0.17,,2013-05-09 09:43:00,
2013-05-09 05:53:00,49.0,49.0,-100.00,NNE,24,0.0,2.0,99,0.00,,,0.17,,2013-05-09 09:53:00,
2013-05-09 06:02:00,49.0,49.0,-100.00,NNE,24,0.0,2.0,99,0.00,,,0.17,,2013-05-09 10:02:00,
2013-05-09 06:12:00,49.0,49.0,-100.00,NNE,24,0.0,2.0,99,0.00,,,0.17,,2013-05-09 10:12:00,
2013-05-09 06:42:00,49.0,49.0,-100.00,WNW,303,0.0,0.0,99,0.00,,,0.17,,2013-05-09 10:42:00,
2013-05-09 06:53:00,49.0,49.0,-100.00,WNW,303,0.0,0.0,99,0.00,,,0.17,,2013-05-09 10:53:00,
2013-05-09 07:02:00,49.0,49.0,-100.00,WNW,303,0.0,0.0,99,0.00,,,0.17,,2013-05-09 11:02:00,
2013-05-09 07:12:00,49.0,49.0,-100.00,WNW,303,0.0,0.0,99,0.00,,,0.17,,2013-05-09 11:12:00,
2013-05-09 07:32:00,50.0,50.0,-100.00,WNW,285,0.0,0.0,99,0.00,,,0.17,,2013-05-09 11:32:00,
2013-05-09 07:42:00,50.0,50.0,-100.00,WNW,285,0.0,0.0,99,0.00,,,0.17,,2013-05-09 11:42:00,
2013-05-09 07:52:00,50.0,50.0,-100.00,WNW,285,0.0,0.0,99,0.00,,,0.17,,2013-05-09 11:52:00,
2013-05-09 08:01:00,50.0,50.0,-100.00,WNW,285,0.0,0.0,99,0.00,,,0.17,,2013-05-09 12:01:00,
2013-05-09 08:12:00,50.0,50.0,-100.00,WNW,285,0.0,0.0,99,0.00,,,0.17,,2013-05-09 12:12:00,
2013-05-09 08:43:00,56.0,56.0,-100.00,SE,136,0.0,0.0,99,0.00,,,0.17,,2013-05-09 12:43:00,
2013-05-09 08:52:00,56.0,56.0,-100.00,SE,136,0.0,0.0,99,0.00,,,0.17,,2013-05-09 12:52:00,
2013-05-09 09:02:00,56.0,56.0,-100.00,SE,136,0.0,0.0,99,0.00,,,0.17,,2013-05-09 13:02:00,
2013-05-09 09:12:00,56.0,56.0,-100.00,SE,136,0.0,0.0,99,0.00,,,0.17,,2013-05-09 13:12:00,
2013-05-09 09:42:00,64.0,63.0,-100.00,NNE,33,1.0,4.0,96,0.00,,,0.17,,2013-05-09 13:42:00,
2013-05-09 09:52:00,64.0,63.0,-100.00,NNE,33,1.0,4.0,96,0.00,,,0.17,,2013-05-09 13:52:00,
2013-05-09 10:02:00,64.0,63.0,-100.00,NNE,33,1.0,4.0,96,0.00,,,0.17,,2013-05-09 14:02:00,
2013-05-09 10:11:00,64.0,63.0,-100.00,NNE,33,1.0,4.0,96,0.00,,,0.17,,2013-05-09 14:11:00,
2013-05-09 10:32:00,68.0,62.0,-100.00,NNW,345,3.0,7.0,80,0.00,,,0.17,,2013-05-09 14:32:00,
2013-05-09 10:42:00,68.0,62.0,-100.00,NNW,345,3.0,7.0,80,0.00,,,0.17,,2013-05-09 14:42:00,
2013-05-09 10:52:00,68.0,62.0,-100.00,NNW,345,3.0,7.0,80,0.00,,,0.17,,2013-05-09 14:52:00,
2013-05-09 11:02:00,68.0,62.0,-100.00,NNW,345,3.0,7.0,80,0.00,,,0.17,,2013-05-09 15:02:00,
2013-05-09 11:11:00,68.0,62.0,-100.00,NNW,345,3.0,7.0,80,0.00,,,0.17,,2013-05-09 15:11:00,
2013-05-09 11:43:00,73.0,63.0,-100.00,SSW,207,3.0,7.0,70,0.00,,,0.17,,2013-05-09 15:43:00,
2013-05-09 11:53:00,73.0,63.0,-100.00,SSW,207,3.0,7.0,70,0.00,,,0.17,,2013-05-09 15:53:00,
2013-05-09 12:03:00,73.0,63.0,-100.00,SSW,207,3.0,7.0,70,0.00,,,0.17,,2013-05-09 16:03:00,
2013-05-09 12:12:00,73.0,63.0,-100.00,SSW,207,3.0,7.0,70,0.00,,,0.17,,2013-05-09 16:12:00,
2013-05-09 12:42:00,76.0,60.0,-100.00,WSW,239,5.0,10.0,57,0.00,,,0.17,,2013-05-09 16:42:00,
2013-05-09 12:53:00,76.0,60.0,-100.00,WSW,239,5.0,10.0,57,0.00,,,0.17,,2013-05-09 16:53:00,
2013-05-09 13:02:00,76.0,60.0,-100.00,WSW,239,5.0,10.0,57,0.00,,,0.17,,2013-05-09 17:02:00,
2013-05-09 13:12:00,76.0,60.0,-100.00,WSW,239,5.0,10.0,57,0.00,,,0.17,,2013-05-09 17:12:00,
2013-05-09 13:32:00,76.0,57.0,-100.00,SSW,197,3.0,12.0,51,0.00,,,0.17,,2013-05-09 17:32:00,
2013-05-09 13:42:00,76.0,57.0,-100.00,SSW,197,3.0,12.0,51,0.00,,,0.17,,2013-05-09 17:42:00,
2013-05-09 13:55:00,76.0,57.0,-100.00,SSW,197,3.0,12.0,51,0.00,,,0.17,,2013-05-09 17:55:00,
2013-05-09 14:02:00,76.0,57.0,-100.00,SSW,197,3.0,12.0,51,0.00,,,0.17,,2013-05-09 18:02:00,
2013-05-09 14:12:00,76.0,57.0,-100.00,SSW,197,3.0,12.0,51,0.00,,,0.17,,2013-05-09 18:12:00,
2013-05-09 14:42:00,76.0,54.0,-100.00,ENE,71,2.0,10.0,46,0.00,,,0.17,,2013-05-09 18:42:00,
2013-05-09 14:52:00,76.0,54.0,-100.00,ENE,71,2.0,10.0,46,0.00,,,0.17,,2013-05-09 18:52:00,
2013-05-09 15:01:00,76.0,54.0,-100.00,ENE,71,2.0,10.0,46,0.00,,,0.17,,2013-05-09 19:01:00,
2013-05-09 15:12:00,76.0,54.0,-100.00,ENE,71,2.0,10.0,46,0.00,,,0.17,,2013-05-09 19:12:00,
2013-05-09 15:42:00,79.0,53.0,-100.00,ESE,111,5.0,15.0,41,0.00,,,0.16,,2013-05-09 19:42:00,
2013-05-09 15:52:00,79.0,53.0,-100.00,ESE,111,5.0,15.0,41,0.00,,,0.16,,2013-05-09 19:52:00,
2013-05-09 16:01:00,79.0,53.0,-100.00,ESE,111,5.0,15.0,41,0.00,,,0.16,,2013-05-09 20:01:00,
2013-05-09 16:11:00,79.0,53.0,-100.00,ESE,111,5.0,15.0,41,0.00,,,0.16,,2013-05-09 20:11:00,
2013-05-09 16:42:00,74.0,54.0,-100.00,SSE,160,2.0,11.0,49,0.00,,,0.13,,2013-05-09 20:42:00,
2013-05-09 16:52:00,74.0,54.0,-100.00,SSE,160,2.0,11.0,49,0.00,,,0.13,,2013-05-09 20:52:00,
2013-05-09 17:02:00,74.0,54.0,-100.00,SSE,160,2.0,11.0,49,0.00,,,0.13,,2013-05-09 21:02:00,
2013-05-09 17:12:00,74.0,54.0,-100.00,SSE,160,2.0,11.0,49,0.00,,,0.13,,2013-05-09 21:12:00,
2013-05-09 17:43:00,76.0,64.0,-100.00,SSE,150,2.0,5.0,67,0.00,,,0.13,,2013-05-09 21:43:00,
2013-05-09 17:53:00,76.0,64.0,-100.00,SSE,150,2.0,5.0,67,0.00,,,0.13,,2013-05-09 21:53:00,
2013-05-09 18:03:00,76.0,64.0,-100.00,SSE,150,2.0,5.0,67,0.00,,,0.13,,2013-05-09 22:03:00,
2013-05-09 18:13:00,76.0,64.0,-100.00,SSE,150,2.0,5.0,67,0.00,,,0.13,,2013-05-09 22:13:00,
2013-05-09 18:33:00,79.0,58.0,-100.00,North,354,4.0,7.0,48,0.00,,,0.13,,2013-05-09 22:33:00,
2013-05-09 18:42:00,79.0,58.0,-100.00,North,354,4.0,7.0,48,0.00,,,0.13,,2013-05-09 22:42:00,
2013-05-09 18:52:00,79.0,58.0,-100.00,North,354,4.0,7.0,48,0.00,,,0.13,,2013-05-09 22:52:00,
2013-05-09 19:02:00,79.0,58.0,-100.00,North,354,4.0,7.0,48,0.00,,,0.13,,2013-05-09 23:02:00,
2013-05-09 19:12:00,79.0,58.0,-100.00,North,354,4.0,7.0,48,0.00,,,0.13,,2013-05-09 23:12:00,
2013-05-09 19:43:00,74.0,52.0,-100.00,NNE,14,2.0,11.0,47,0.00,,,-99.99,,2013-05-09 23:43:00,
2013-05-09 19:52:00,74.0,52.0,-100.00,NNE,14,2.0,11.0,47,0.00,,,-99.99,,2013-05-09 23:52:00,
2013-05-09 20:01:00,74.0,52.0,-100.00,NNE,14,2.0,11.0,47,0.00,,,-99.99,,2013-05-10 00:01:00,
2013-05-09 20:11:00,74.0,52.0,-100.00,NNE,14,2.0,11.0,47,0.00,,,-99.99,,2013-05-10 00:11:00,
2013-05-09 20:42:00,66.0,58.0,-100.00,NNE,30,1.0,5.0,76,0.00,,,0.01,,2013-05-10 00:42:00,
2013-05-09 20:52:00,66.0,58.0,-100.00,NNE,30,1.0,5.0,76,0.00,,,0.01,,2013-05-10 00:52:00,
2013-05-09 21:01:00,66.0,58.0,-100.00,NNE,30,1.0,5.0,76,0.00,,,0.01,,2013-05-10 01:01:00,
2013-05-09 21:11:00,66.0,58.0,-100.00,NNE,30,1.0,5.0,76,0.00,,,0.01,,2013-05-10 01:11:00,
2013-05-09 21:32:00,62.0,58.0,-100.00,NNE,18,0.0,2.0,87,0.00,,,0.01,,2013-05-10 01:32:00,
2013-05-09 21:42:00,62.0,58.0,-100.00,NNE,18,0.0,2.0,87,0.00,,,0.01,,2013-05-10 01:42:00,
2013-05-09 21:52:00,62.0,58.0,-100.00,NNE,18,0.0,2.0,87,0.00,,,0.01,,2013-05-10 01:52:00,
2013-05-09 22:02:00,62.0,58.0,-100.00,NNE,18,0.0,2.0,87,0.00,,,0.01,,2013-05-10 02:02:00,
2013-05-09 22:11:00,62.0,58.0,-100.00,NNE,18,0.0,2.0,87,0.00,,,0.01,,2013-05-10 02:11:00,
2013-05-09 22:42:00,60.0,58.0,-100.00,SE,136,0.0,0.0,92,0.00,,,0.01,,2013-05-10 02:42:00,
2013-05-09 22:53:00,60.0,58.0,-100.00,SE,136,0.0,0.0,92,0.00,,,0.01,,2013-05-10 02:53:00,
2013-05-09 23:01:00,60.0,58.0,-100.00,SE,136,0.0,0.0,92,0.00,,,0.01,,2013-05-10 03:01:00,
2013-05-09 23:11:00,60.0,58.0,-100.00,SE,136,0.0,0.0,92,0.00,,,0.01,,2013-05-10 03:11:00,
2013-05-09 23:43:00,57.0,56.0,-100.00,North,357,0.0,0.0,96,0.00,,,0.01,,2013-05-10 03:43:00,
2013-05-09 23:53:00,57.0,56.0,-100.00,North,357,0.0,0.0,96,0.00,,,0.01,,2013-05-10 03:53:00,